Aérodrome :
LOGIN :

S'inscrire | Disclaimer

   EN    FR    IT 

 










Légende :    VFR   VFR Marginal   IFR   IFR Intensif   IFR Très Intensif
Visi : 
Plafond : 
>= 8 km
>= 3000ft
5 à 8 km
1000 à 3000 ft
1500m à 5 km
500 à 1000 ft
800 à 1500m
200 à 500 ft
< 800m
< 200 ft
Symboles :   Orages  Brouillard  Fortes neiges  Fortes précipitations  Vent > 20 kt
SIGMETs :   Divers  Orages  Givrage  Turbulence  Onde Orograph.  Cendres Volcan.







- Altitude de l'aérodrome : 36 ft
- Code IATA : LTQ
- Voir les cartes d'approche


LFAT - Le Touquet

DERNIER METAR :
  • 171900Z AUTO 35012KT 340V050 CAVOK 03/M01 Q1016

METARs EXPIRÉS :
  • 171830Z AUTO 35013KT 330V050 9999 FEW033 04/M01 Q1016
  • 171800Z AUTO 33016KT 9999 BKN034 04/M01 Q1016 NOSIG
  • 171730Z AUTO 34016KT 9999 BKN036 04/M01 Q1015 NOSIG
  • 171700Z AUTO 33017KT 9999 BKN036 04/M01 Q1015 TEMPO 32015G25KT
  • 171630Z AUTO 33015KT 310V010 9999 OVC035 04/M01 Q1014 TEMPO 32015G25KT

TAF AMD TAF LFAT
Valide du 17 à 15h jusqu'au 18 à 00h UTC


171400Z 1715/1724 32012KT 9999 SCT025
TEMPO 1715/1718 32015G25KT
BECMG 1722/1724 VRB02KT
ATIS : +33 3 21 06 62 84
Pas de NOTAMs connus pour ce terrain.



MET'MAP, la Météo Aéronautique d'un coup d'oeil ! - Copyright ORBIFLY Décembre 2007 - Disclaimer

ORBIFLY MET'MAP TEAM :

Programmation & Développement : Alexandra Zaïnal
Conception & Développement : Baudouin d'Aumeries
Co-Programmation & Développement : Marc-Olivier Méhu
Soutien technique & logistique : Manuel Goepfert

Contact : metmap@orbifly.com




SOURCES & CREDITS :

   NOAA